Preview of NWS' New Version of Forecast
This preview is not operational and should not be used for support decisions.

Regional Weather Roundup (RWR)

Issued by National Weather Service (NWS)

                            
000
ASUS43 KBIS 220502
RWRND 

NORTH DAKOTA REGIONAL WEATHER ROUNDUP
NATIONAL WEATHER SERVICE BISMARCK ND
1200 AM CDT MON APR 22 2019

NOTE: "FAIR" INDICATES FEW OR NO CLOUDS BELOW 12,000 FEET WITH NO
SIGNIFICANT WEATHER AND/OR OBSTRUCTIONS TO VISIBILITY.


NDZ001>003-009>011-017-220600-
NORTHWEST NORTH DAKOTA
  
CITY           SKY/WX    TMP DP  RH WIND       PRES   REMARKS
WILLISTON      CLEAR     40  27  59 NE5       30.20R                  
MINOT          CLEAR     45  27  49 NW10      30.15R                  
MINOT AFB      CLEAR     42  26  52 NW9       30.14R                  
$$
 
NDZ018>021-031>035-040>046-220600-
SOUTHWEST NORTH DAKOTA
  
CITY           SKY/WX    TMP DP  RH WIND       PRES   REMARKS
BISMARCK       CLOUDY    46  35  65 NW5       30.14S                  
DICKINSON      PTCLDY    41  37  86 W8        30.16R                  
GARRISON         N/A     43  32  65 NW9       30.15R                  
HETTINGER ARPT MOCLDY    38  34  85 NW3       30.18S                  
$$
 
NDZ004>008-012>016-024-026-027-054-220600-
NORTHEAST NORTH DAKOTA
  
CITY           SKY/WX    TMP DP  RH WIND       PRES   REMARKS
GRAND FORKS    CLOUDY    48  34  58 CALM      30.09S                  
GRND FRKS AFB  MOCLDY    40  38  93 CALM      30.10R                  
DEVILS LAKE    MOCLDY    42  34  73 CALM      30.13R                  
$$
 
NDZ022-023-025-028>030-036>039-047>053-220600-
SOUTHEAST NORTH DAKOTA
  
CITY           SKY/WX    TMP DP  RH WIND       PRES   REMARKS
FARGO          CLOUDY    50  40  68 NE6       30.08R                  
JAMESTOWN      CLOUDY    45  39  79 N7        30.10R                  
$$